Time,TemperatureF,DewpointF,PressureIn,WindDirection,WindDirectionDegrees,WindSpeedMPH,WindSpeedGustMPH,Humidity,HourlyPrecipIn,Conditions,Clouds,dailyrainin,SoftwareType,DateUTC
2013-05-01 00:00:00,54.7,32.7,28.50,NW,315,4.0,13.0,43,0.00,,---,0.00,VWS V14.01,2013-05-01 06:00:00,
2013-05-01 00:30:00,48.0,36.8,28.58,ENE,68,4.0,15.0,65,0.00,,---,0.00,VWS V14.01,2013-05-01 06:30:00,
2013-05-01 01:00:00,42.7,35.7,28.64,NE,45,3.0,15.0,76,0.02,,---,0.02,VWS V14.01,2013-05-01 07:00:00,
2013-05-01 01:30:00,41.1,36.0,28.67,SE,135,1.0,13.0,82,0.04,,---,0.04,VWS V14.01,2013-05-01 07:30:00,
2013-05-01 02:00:00,40.3,36.5,28.69,SE,135,2.0,9.0,86,0.08,,---,0.08,VWS V14.01,2013-05-01 08:00:00,
2013-05-01 02:30:00,40.9,36.8,28.67,ESE,112,3.0,12.0,85,0.09,,---,0.11,VWS V14.01,2013-05-01 08:30:00,
2013-05-01 03:00:00,39.3,35.2,28.67,SE,135,3.0,14.0,85,0.07,,---,0.11,VWS V14.01,2013-05-01 09:00:00,
2013-05-01 03:30:00,40.5,30.0,28.67,SE,135,1.0,8.0,66,0.03,,---,0.11,VWS V14.01,2013-05-01 09:30:00,
2013-05-01 04:00:00,39.1,30.2,28.68,SE,135,2.0,10.0,70,0.00,,---,0.11,VWS V14.01,2013-05-01 10:00:00,
2013-05-01 04:30:00,39.7,30.7,28.70,SE,135,1.0,7.0,70,0.00,,---,0.11,VWS V14.01,2013-05-01 10:30:00,
2013-05-01 05:00:00,39.8,30.5,28.72,SE,135,1.0,7.0,69,0.00,,---,0.11,VWS V14.01,2013-05-01 11:00:00,
2013-05-01 05:30:00,38.4,31.8,28.73,SE,135,0.0,2.0,77,0.00,,---,0.11,VWS V14.01,2013-05-01 11:30:00,
2013-05-01 06:00:00,36.1,31.1,28.76,SE,135,0.0,1.0,82,0.00,,---,0.11,VWS V14.01,2013-05-01 12:00:00,
2013-05-01 06:30:00,38.4,31.8,28.73,SE,135,0.0,2.0,77,0.00,,---,0.11,VWS V14.01,2013-05-01 12:30:00,
2013-05-01 06:57:00,37.7,27.8,28.79,SSE,162,0.0,0.0,67,0.00,,---,0.11,VWS V14.01,2013-05-01 12:57:00,
2013-05-01 07:00:00,36.1,31.1,28.76,SE,135,0.0,1.0,82,0.00,,---,0.11,VWS V14.01,2013-05-01 13:00:00,
2013-05-01 07:02:00,37.2,27.6,28.79,SSE,162,0.0,0.0,68,0.00,,---,0.11,VWS V14.01,2013-05-01 13:02:00,
2013-05-01 07:07:00,36.8,28.0,28.82,SSE,162,0.0,0.0,70,0.00,,---,0.11,VWS V14.01,2013-05-01 13:07:00,
2013-05-01 07:12:00,36.5,27.7,28.83,SSE,161,0.0,2.0,70,0.00,,---,0.11,VWS V14.01,2013-05-01 13:12:00,
2013-05-01 07:17:00,36.5,28.0,28.83,SSE,162,0.0,2.0,71,0.00,,---,0.11,VWS V14.01,2013-05-01 13:17:00,
2013-05-01 07:22:00,36.2,27.7,28.83,SSE,161,0.0,3.0,71,0.00,,---,0.11,VWS V14.01,2013-05-01 13:22:00,
2013-05-01 07:27:00,36.6,27.8,28.83,SSE,162,0.0,3.0,70,0.00,,---,0.11,VWS V14.01,2013-05-01 13:27:00,
2013-05-01 07:32:00,36.7,28.5,28.83,SSE,162,0.0,3.0,72,0.00,,---,0.11,VWS V14.01,2013-05-01 13:32:00,
2013-05-01 07:37:00,36.5,29.0,28.83,SSE,162,0.0,0.0,74,0.00,,---,0.11,VWS V14.01,2013-05-01 13:37:00,
2013-05-01 07:42:00,36.1,29.0,28.83,SSE,161,0.0,0.0,75,0.00,,---,0.11,VWS V14.01,2013-05-01 13:42:00,
2013-05-01 07:47:00,36.9,30.4,28.83,SSE,162,0.0,0.0,77,0.00,,---,0.11,VWS V14.01,2013-05-01 13:47:00,
2013-05-01 07:52:00,38.6,32.3,28.82,SSE,161,0.0,0.0,78,0.00,,---,0.11,VWS V14.01,2013-05-01 13:52:00,
2013-05-01 07:57:00,40.3,34.0,28.81,SSE,162,0.0,0.0,78,0.00,,---,0.11,VWS V14.01,2013-05-01 13:57:00,
2013-05-01 08:00:00,37.2,27.6,28.79,SSE,162,0.0,0.0,68,0.00,,---,0.11,VWS V14.01,2013-05-01 14:00:00,
2013-05-01 08:02:00,42.2,35.8,28.80,SSE,161,0.0,0.0,78,0.00,,---,0.11,VWS V14.01,2013-05-01 14:02:00,
2013-05-01 08:07:00,42.8,35.4,28.82,SSE,161,0.0,1.0,75,0.00,,---,0.11,VWS V14.01,2013-05-01 14:07:00,
2013-05-01 08:12:00,42.9,35.9,28.82,SSE,162,1.0,2.0,76,0.00,,---,0.11,VWS V14.01,2013-05-01 14:12:00,
2013-05-01 08:17:00,42.8,36.1,28.82,SSE,163,0.0,4.0,77,0.00,,---,0.11,VWS V14.01,2013-05-01 14:17:00,
2013-05-01 08:22:00,43.0,36.3,28.82,SSE,164,0.0,6.0,77,0.00,,---,0.11,VWS V14.01,2013-05-01 14:22:00,
2013-05-01 08:27:00,42.9,36.2,28.83,SSE,164,0.0,6.0,77,0.00,,---,0.11,VWS V14.01,2013-05-01 14:27:00,
2013-05-01 08:30:00,36.6,28.4,28.83,SSE,161,0.0,3.0,72,0.00,,---,0.11,VWS V14.01,2013-05-01 14:30:00,
2013-05-01 08:32:00,43.0,36.3,28.83,SSE,164,1.0,6.0,77,0.00,,---,0.11,VWS V14.01,2013-05-01 14:32:00,
2013-05-01 08:37:00,43.4,36.0,28.83,SSE,164,0.0,1.0,75,0.00,,---,0.11,VWS V14.01,2013-05-01 14:37:00,
2013-05-01 08:42:00,44.0,35.9,28.83,SSE,164,0.0,2.0,73,0.00,,---,0.11,VWS V14.01,2013-05-01 14:42:00,
2013-05-01 08:47:00,44.2,35.0,28.83,SSE,164,0.0,2.0,70,0.00,,---,0.11,VWS V14.01,2013-05-01 14:47:00,
2013-05-01 08:52:00,44.5,34.6,28.82,SSE,164,0.0,5.0,68,0.00,,---,0.11,VWS V14.01,2013-05-01 14:52:00,
2013-05-01 08:57:00,44.2,34.3,28.83,SSE,167,5.0,6.0,68,0.00,,---,0.11,VWS V14.01,2013-05-01 14:57:00,
2013-05-01 09:00:00,42.2,35.8,28.80,SSE,162,0.0,0.0,78,0.00,,---,0.11,VWS V14.01,2013-05-01 15:00:00,
2013-05-01 09:02:00,44.2,35.0,28.84,SSE,167,0.0,0.0,70,0.00,,---,0.11,VWS V14.01,2013-05-01 15:02:00,
2013-05-01 09:07:00,43.9,34.8,28.87,SSE,167,0.0,6.0,70,0.00,,---,0.11,VWS V14.01,2013-05-01 15:07:00,
2013-05-01 09:12:00,43.2,33.7,28.87,SSE,167,0.0,6.0,69,0.00,,---,0.11,VWS V14.01,2013-05-01 15:12:00,
2013-05-01 09:18:00,42.9,34.5,28.87,SSE,167,0.0,6.0,72,0.00,,---,0.11,VWS V14.01,2013-05-01 15:18:00,
2013-05-01 09:23:00,42.8,34.1,28.87,SSE,167,0.0,6.0,71,0.00,,---,0.11,VWS V14.01,2013-05-01 15:23:00,
2013-05-01 09:28:00,42.8,34.1,28.87,SSE,167,1.0,6.0,71,0.00,,---,0.11,VWS V14.01,2013-05-01 15:28:00,
2013-05-01 09:30:00,43.0,36.3,28.83,SSE,164,1.0,6.0,77,0.00,,---,0.11,VWS V14.01,2013-05-01 15:30:00,
2013-05-01 09:33:00,42.7,34.0,28.87,SSE,168,6.0,6.0,71,0.00,,---,0.11,VWS V14.01,2013-05-01 15:33:00,
2013-05-01 09:38:00,43.6,34.8,28.87,SSE,168,0.0,6.0,71,0.00,,---,0.11,VWS V14.01,2013-05-01 15:38:00,
2013-05-01 09:43:00,44.9,34.2,28.86,SSE,168,0.0,6.0,66,0.00,,---,0.11,VWS V14.01,2013-05-01 15:43:00,
2013-05-01 09:48:00,45.0,32.4,28.87,South,170,0.0,6.0,61,0.00,,---,0.11,VWS V14.01,2013-05-01 15:48:00,
2013-05-01 09:53:00,44.5,31.5,28.87,South,170,0.0,6.0,60,0.00,,---,0.11,VWS V14.01,2013-05-01 15:53:00,
2013-05-01 09:58:00,44.3,30.9,28.88,South,170,0.0,6.0,59,0.00,,---,0.11,VWS V14.01,2013-05-01 15:58:00,
2013-05-01 10:00:00,44.2,35.0,28.84,SSE,167,0.0,6.0,70,0.00,,---,0.11,VWS V14.01,2013-05-01 16:00:00,
2013-05-01 10:03:00,44.4,31.4,28.87,South,169,0.0,0.0,60,0.00,,---,0.11,VWS V14.01,2013-05-01 16:03:00,
2013-05-01 10:08:00,44.2,30.0,28.87,South,170,0.0,3.0,57,0.00,,---,0.11,VWS V14.01,2013-05-01 16:08:00,
2013-05-01 10:13:00,44.2,30.0,28.87,South,169,0.0,3.0,57,0.00,,---,0.11,VWS V14.01,2013-05-01 16:13:00,
2013-05-01 10:18:00,46.0,28.9,28.86,South,170,0.0,4.0,51,0.00,,---,0.11,VWS V14.01,2013-05-01 16:18:00,
2013-05-01 10:23:00,47.4,29.2,28.86,South,172,4.0,4.0,49,0.00,,---,0.11,VWS V14.01,2013-05-01 16:23:00,
2013-05-01 10:28:00,48.7,32.8,28.85,South,173,0.0,4.0,54,0.00,,---,0.11,VWS V14.01,2013-05-01 16:28:00,
2013-05-01 10:30:00,42.7,34.0,28.87,SSE,168,6.0,6.0,71,0.00,,---,0.11,VWS V14.01,2013-05-01 16:30:00,
2013-05-01 10:33:00,48.9,28.0,28.85,South,173,1.0,1.0,44,0.00,,---,0.11,VWS V14.01,2013-05-01 16:33:00,
2013-05-01 10:38:00,49.3,32.0,28.85,SSW,192,4.0,6.0,51,0.00,,---,0.11,VWS V14.01,2013-05-01 16:38:00,
2013-05-01 10:43:00,49.0,26.3,28.85,SW,234,0.0,6.0,41,0.00,,---,0.11,VWS V14.01,2013-05-01 16:43:00,
2013-05-01 10:48:00,47.7,25.8,28.85,WSW,238,0.0,6.0,42,0.00,,---,0.11,VWS V14.01,2013-05-01 16:48:00,
2013-05-01 10:53:00,48.2,27.3,28.85,WSW,244,0.0,6.0,44,0.00,,---,0.11,VWS V14.01,2013-05-01 16:53:00,
2013-05-01 10:58:00,49.6,27.5,28.84,WSW,245,0.0,6.0,42,0.00,,---,0.11,VWS V14.01,2013-05-01 16:58:00,
2013-05-01 11:00:00,44.4,31.4,28.88,South,169,0.0,6.0,60,0.00,,---,0.11,VWS V14.01,2013-05-01 17:00:00,
2013-05-01 11:03:00,50.2,25.6,28.84,WSW,249,0.0,0.0,38,0.00,,---,0.11,VWS V14.01,2013-05-01 17:03:00,
2013-05-01 11:08:00,49.2,24.7,28.88,West,264,1.0,6.0,38,0.00,,---,0.11,VWS V14.01,2013-05-01 17:08:00,
2013-05-01 11:13:00,48.7,22.3,28.89,WNW,289,4.0,6.0,35,0.00,,---,0.11,VWS V14.01,2013-05-01 17:13:00,
2013-05-01 11:18:00,48.9,23.1,28.89,NW,315,0.0,8.0,36,0.00,,---,0.11,VWS V14.01,2013-05-01 17:18:00,
2013-05-01 11:23:00,49.1,22.6,28.89,NW,308,0.0,9.0,35,0.00,,---,0.11,VWS V14.01,2013-05-01 17:23:00,
2013-05-01 11:28:00,50.6,23.3,28.87,WNW,303,3.0,9.0,34,0.00,,---,0.11,VWS V14.01,2013-05-01 17:28:00,
2013-05-01 11:30:00,48.9,28.0,28.85,South,173,0.0,4.0,44,0.00,,---,0.11,VWS V14.01,2013-05-01 17:30:00,
2013-05-01 11:33:00,50.6,22.6,28.88,NW,323,5.0,10.0,33,0.00,,---,0.11,VWS V14.01,2013-05-01 17:33:00,
2013-05-01 11:38:00,50.5,23.9,28.89,NW,306,5.0,11.0,35,0.00,,---,0.11,VWS V14.01,2013-05-01 17:38:00,
2013-05-01 11:43:00,50.1,18.3,28.89,WNW,288,3.0,11.0,28,0.00,,---,0.11,VWS V14.01,2013-05-01 17:43:00,
2013-05-01 11:48:00,50.6,17.0,28.89,WNW,303,4.0,14.0,26,0.00,,---,0.11,VWS V14.01,2013-05-01 17:48:00,
2013-05-01 11:53:00,50.7,15.2,28.89,NW,322,5.0,14.0,24,0.00,,---,0.11,VWS V14.01,2013-05-01 17:53:00,
2013-05-01 11:58:00,50.2,10.7,28.90,WNW,287,8.0,14.0,20,0.00,,---,0.11,VWS V14.01,2013-05-01 17:58:00,
2013-05-01 12:00:00,50.1,26.1,28.84,WSW,249,0.0,6.0,39,0.00,,---,0.11,VWS V14.01,2013-05-01 18:00:00,
2013-05-01 12:03:00,50.3,13.9,28.90,WNW,298,11.0,11.0,23,0.00,,---,0.11,VWS V14.01,2013-05-01 18:03:00,
2013-05-01 12:08:00,50.1,12.8,28.98,WNW,294,5.0,14.0,22,0.00,,---,0.11,VWS V14.01,2013-05-01 18:08:00,
2013-05-01 12:13:00,50.9,7.7,28.97,WNW,302,3.0,14.0,17,0.00,,---,0.11,VWS V14.01,2013-05-01 18:13:00,
2013-05-01 12:18:00,51.2,9.2,28.97,West,263,0.0,14.0,18,0.00,,---,0.11,VWS V14.01,2013-05-01 18:18:00,
2013-05-01 12:23:00,51.9,9.7,28.96,NW,320,6.0,14.0,18,0.00,,---,0.11,VWS V14.01,2013-05-01 18:23:00,
2013-05-01 12:28:00,51.2,10.4,28.96,WNW,300,0.0,14.0,19,0.00,,---,0.11,VWS V14.01,2013-05-01 18:28:00,
2013-05-01 12:30:00,50.6,22.6,28.88,NW,313,4.0,9.0,33,0.00,,---,0.11,VWS V14.01,2013-05-01 18:30:00,
2013-05-01 12:33:00,51.7,9.6,28.96,NW,310,9.0,9.0,18,0.00,,---,0.11,VWS V14.01,2013-05-01 18:33:00,
2013-05-01 12:38:00,51.5,10.6,28.96,West,265,7.0,12.0,19,0.00,,---,0.11,VWS V14.01,2013-05-01 18:38:00,
2013-05-01 12:43:00,50.9,8.9,28.96,WNW,293,5.0,12.0,18,0.00,,---,0.11,VWS V14.01,2013-05-01 18:43:00,
2013-05-01 12:48:00,52.1,13.4,28.97,NW,319,7.0,12.0,21,0.00,,---,0.11,VWS V14.01,2013-05-01 18:48:00,
2013-05-01 12:53:00,52.2,10.0,28.97,NW,321,9.0,12.0,18,0.00,,---,0.11,VWS V14.01,2013-05-01 18:53:00,
2013-05-01 12:58:00,51.6,10.7,28.96,NW,320,4.0,13.0,19,0.00,,---,0.11,VWS V14.01,2013-05-01 18:58:00,
2013-05-01 13:00:00,50.0,13.7,28.90,NW,307,5.0,14.0,23,0.00,,---,0.11,VWS V14.01,2013-05-01 19:00:00,
2013-05-01 13:03:00,51.5,9.4,28.98,WNW,302,6.0,13.0,18,0.00,,---,0.11,VWS V14.01,2013-05-01 19:03:00,
2013-05-01 13:08:00,51.8,14.2,28.99,West,260,13.0,13.0,22,0.00,,---,0.11,VWS V14.01,2013-05-01 19:08:00,
2013-05-01 13:13:00,51.9,10.9,28.98,NW,324,9.0,13.0,19,0.00,,---,0.11,VWS V14.01,2013-05-01 19:13:00,
2013-05-01 13:18:00,52.2,13.5,28.98,NW,311,5.0,13.0,21,0.00,,---,0.11,VWS V14.01,2013-05-01 19:18:00,
2013-05-01 13:23:00,51.6,6.9,28.99,NW,314,11.0,16.0,16,0.00,,---,0.11,VWS V14.01,2013-05-01 19:23:00,
2013-05-01 13:28:00,52.2,10.0,28.99,WNW,282,8.0,16.0,18,0.00,,---,0.11,VWS V14.01,2013-05-01 19:28:00,
2013-05-01 13:30:00,51.7,10.8,28.96,WNW,298,6.0,14.0,19,0.00,,---,0.11,VWS V14.01,2013-05-01 19:30:00,
2013-05-01 13:33:00,52.3,10.1,28.99,WNW,292,5.0,9.0,18,0.00,,---,0.11,VWS V14.01,2013-05-01 19:33:00,
2013-05-01 13:38:00,52.8,14.0,28.99,NW,309,9.0,19.0,21,0.00,,---,0.11,VWS V14.01,2013-05-01 19:38:00,
2013-05-01 13:43:00,52.6,10.3,29.00,NW,308,6.0,19.0,18,0.00,,---,0.11,VWS V14.01,2013-05-01 19:43:00,
2013-05-01 13:48:00,52.3,8.8,29.00,WNW,302,9.0,19.0,17,0.00,,---,0.11,VWS V14.01,2013-05-01 19:48:00,
2013-05-01 13:53:00,51.6,5.5,29.00,NW,315,3.0,19.0,15,0.00,,---,0.11,VWS V14.01,2013-05-01 19:53:00,
2013-05-01 13:58:00,52.4,8.9,29.00,WNW,287,6.0,19.0,17,0.00,,---,0.11,VWS V14.01,2013-05-01 19:58:00,
2013-05-01 14:00:00,51.6,8.2,28.97,NW,325,12.0,18.0,17,0.00,,---,0.11,VWS V14.01,2013-05-01 20:00:00,
2013-05-01 14:03:00,53.0,8.0,29.00,NW,313,6.0,12.0,16,0.00,,---,0.11,VWS V14.01,2013-05-01 20:03:00,
2013-05-01 14:08:00,52.0,8.6,29.02,NW,309,4.0,14.0,17,0.00,,---,0.11,VWS V14.01,2013-05-01 20:08:00,
2013-05-01 14:13:00,52.1,5.9,29.02,NNW,330,5.0,14.0,15,0.00,,---,0.11,VWS V14.01,2013-05-01 20:13:00,
2013-05-01 14:19:00,52.7,9.1,29.01,WNW,300,2.0,14.0,17,0.00,,---,0.11,VWS V14.01,2013-05-01 20:19:00,
2013-05-01 14:24:00,52.6,9.1,29.01,NW,323,9.0,14.0,17,0.00,,---,0.11,VWS V14.01,2013-05-01 20:24:00,
2013-05-01 14:29:00,53.6,7.1,29.01,WNW,298,8.0,14.0,15,0.00,,---,0.11,VWS V14.01,2013-05-01 20:29:00,
2013-05-01 14:30:00,52.2,10.0,28.99,WSW,258,4.0,16.0,18,0.00,,---,0.11,VWS V14.01,2013-05-01 20:30:00,
2013-05-01 14:34:00,54.0,8.8,29.01,WNW,288,7.0,11.0,16,0.00,,---,0.11,VWS V14.01,2013-05-01 20:34:00,
2013-05-01 14:39:00,53.6,5.6,29.02,WNW,297,1.0,14.0,14,0.00,,---,0.11,VWS V14.01,2013-05-01 20:39:00,
2013-05-01 14:44:00,53.3,6.8,29.02,NW,320,8.0,14.0,15,0.00,,---,0.11,VWS V14.01,2013-05-01 20:44:00,
2013-05-01 14:49:00,52.6,6.3,29.01,NW,325,6.0,14.0,15,0.00,,---,0.11,VWS V14.01,2013-05-01 20:49:00,
2013-05-01 14:54:00,52.5,6.2,29.01,NW,313,7.0,14.0,15,0.00,,---,0.11,VWS V14.01,2013-05-01 20:54:00,
2013-05-01 14:59:00,53.0,5.1,29.02,NW,306,9.0,16.0,14,0.00,,---,0.11,VWS V14.01,2013-05-01 20:59:00,
2013-05-01 15:00:00,53.1,9.4,29.00,NNW,327,5.0,19.0,17,0.00,,---,0.11,VWS V14.01,2013-05-01 21:00:00,
2013-05-01 15:04:00,53.5,5.5,29.02,West,267,2.0,6.0,14,0.00,,---,0.11,VWS V14.01,2013-05-01 21:04:00,
2013-05-01 15:09:00,52.9,3.4,29.02,WNW,300,11.0,13.0,13,0.00,,---,0.11,VWS V14.01,2013-05-01 21:09:00,
2013-05-01 15:14:00,53.2,5.3,29.02,NNW,327,15.0,19.0,14,0.00,,---,0.11,VWS V14.01,2013-05-01 21:14:00,
2013-05-01 15:19:00,53.8,4.1,29.02,West,264,2.0,19.0,13,0.00,,---,0.11,VWS V14.01,2013-05-01 21:19:00,
2013-05-01 15:24:00,54.6,3.0,29.01,WSW,237,1.0,19.0,12,0.00,,---,0.11,VWS V14.01,2013-05-01 21:24:00,
2013-05-01 15:30:00,54.6,6.4,29.01,NW,315,5.0,19.0,14,0.00,,---,0.11,VWS V14.01,2013-05-01 21:30:00,
2013-05-01 16:00:00,54.8,8.1,29.00,NW,315,4.0,14.0,15,0.00,,---,0.11,VWS V14.01,2013-05-01 22:00:00,
2013-05-01 16:30:00,53.6,5.6,29.01,WNW,292,5.0,15.0,14,0.00,,---,0.11,VWS V14.01,2013-05-01 22:30:00,
2013-05-01 17:00:00,55.0,12.3,29.01,NW,315,3.0,13.0,18,0.00,,---,0.11,VWS V14.01,2013-05-01 23:00:00,
2013-05-01 17:30:00,54.3,9.1,29.05,NW,315,4.0,12.0,16,0.00,,---,0.11,VWS V14.01,2013-05-01 23:30:00,
2013-05-01 18:00:00,55.0,12.3,29.01,NW,315,3.0,13.0,18,0.00,,---,0.11,VWS V14.01,2013-05-02 00:00:00,
2013-05-01 18:07:00,53.9,10.1,29.06,WNW,302,4.0,4.0,17,0.00,,---,0.11,VWS V14.01,2013-05-02 00:07:00,
2013-05-01 18:12:00,53.9,10.1,29.06,WNW,298,3.0,11.0,17,0.00,,---,0.11,VWS V14.01,2013-05-02 00:12:00,
2013-05-01 18:17:00,53.5,9.8,29.06,WNW,300,5.0,11.0,17,0.00,,---,0.11,VWS V14.01,2013-05-02 00:17:00,
2013-05-01 18:22:00,52.9,10.6,29.07,NW,306,0.0,11.0,18,0.00,,---,0.11,VWS V14.01,2013-05-02 00:22:00,
2013-05-01 18:27:00,52.6,10.3,29.07,NW,306,4.0,11.0,18,0.00,,---,0.11,VWS V14.01,2013-05-02 00:27:00,
2013-05-01 18:30:00,54.3,9.1,29.05,NW,315,4.0,12.0,16,0.00,,---,0.11,VWS V14.01,2013-05-02 00:30:00,
2013-05-01 18:32:00,52.9,10.6,29.06,WNW,290,4.0,11.0,18,0.00,,---,0.11,VWS V14.01,2013-05-02 00:32:00,
2013-05-01 18:37:00,52.8,10.5,29.06,NW,306,9.0,12.0,18,0.00,,---,0.11,VWS V14.01,2013-05-02 00:37:00,
2013-05-01 18:42:00,52.5,11.4,29.07,WNW,293,0.0,14.0,19,0.00,,---,0.11,VWS V14.01,2013-05-02 00:42:00,
2013-05-01 18:47:00,52.8,11.7,29.06,WNW,286,3.0,14.0,19,0.00,,---,0.11,VWS V14.01,2013-05-02 00:47:00,
2013-05-01 18:52:00,52.8,11.7,29.06,WNW,298,3.0,14.0,19,0.00,,---,0.11,VWS V14.01,2013-05-02 00:52:00,
2013-05-01 18:57:00,52.1,11.1,29.08,NW,321,2.0,18.0,19,0.00,,---,0.11,VWS V14.01,2013-05-02 00:57:00,
2013-05-01 19:02:00,51.8,7.1,29.08,WNW,289,6.0,21.0,16,0.00,,---,0.11,VWS V14.01,2013-05-02 01:02:00,
2013-05-01 19:07:00,51.4,5.3,29.05,WNW,286,4.0,12.0,15,0.00,,---,0.11,VWS V14.01,2013-05-02 01:07:00,
2013-05-01 19:12:00,51.1,7.8,29.06,West,261,8.0,12.0,17,0.00,,---,0.11,VWS V14.01,2013-05-02 01:12:00,
2013-05-01 19:17:00,51.0,6.4,29.06,West,265,5.0,12.0,16,0.00,,---,0.11,VWS V14.01,2013-05-02 01:17:00,
2013-05-01 19:23:00,51.0,6.4,29.06,West,269,8.0,13.0,16,0.00,,---,0.11,VWS V14.01,2013-05-02 01:23:00,
2013-05-01 19:28:00,50.8,6.2,29.06,West,276,0.0,13.0,16,0.00,,---,0.11,VWS V14.01,2013-05-02 01:28:00,
2013-05-01 19:30:00,50.5,6.0,29.07,WNW,292,5.0,13.0,16,0.00,,---,0.11,VWS V14.01,2013-05-02 01:30:00,
2013-05-01 20:00:00,48.7,7.1,29.10,NW,315,1.0,13.0,18,0.00,,---,0.11,VWS V14.01,2013-05-02 02:00:00,
2013-05-01 20:30:00,47.1,4.5,29.12,ESE,112,1.0,12.0,17,0.00,,---,0.11,VWS V14.01,2013-05-02 02:30:00,
2013-05-01 21:00:00,46.6,5.4,29.14,SSE,158,1.0,11.0,18,0.00,,---,0.11,VWS V14.01,2013-05-02 03:00:00,
2013-05-01 21:30:00,45.0,8.5,29.18,WNW,292,1.0,9.0,22,0.00,,---,0.11,VWS V14.01,2013-05-02 03:30:00,
2013-05-01 22:00:00,44.3,13.3,29.20,West,270,2.0,14.0,28,0.00,,---,0.11,VWS V14.01,2013-05-02 04:00:00,
2013-05-01 22:30:00,43.2,14.6,29.19,West,270,0.0,8.0,31,0.00,,---,0.11,VWS V14.01,2013-05-02 04:30:00,
2013-05-01 23:00:00,42.6,16.2,29.21,ESE,112,1.0,11.0,34,0.00,,---,0.11,VWS V14.01,2013-05-02 05:00:00,
2013-05-01 23:30:00,41.3,17.0,29.24,WNW,292,0.0,10.0,37,0.00,,---,0.11,VWS V14.01,2013-05-02 05:30:00,